Location: Unspecified
(40.7945°N, 111.1337°W)
Time: 13:43:46
(UTC-06:00)

Altair - Pass Details

Date: 26 June 2019
Orbit: 1501 x 1683 km, 47.2° (Epoch: 21 August)

Event Time Altitude Azimuth Distance (km) Brightness Sun altitude
Rises 01:17:02 0° 295° (WNW) 4,800 10.5 -25.8°
Reaches altitude 10° 01:20:05 10° 296° (WNW) 3,836 9.9 -25.8°
Maximum altitude 01:30:00 87° 27° (NNE) 1,658 7.5 -25.8°
Drops below altitude 10° 01:40:10 10° 118° (ESE) 3,932 9.4 -25.8°
Sets 01:43:20 0° 118° (ESE) 4,924 9.9 -25.7°
